Date String (YYYY-MM-DD hh:mm:ss) UTC,Instrument flags,Ambient pressure (hPa),Sample flow (lpm),Bypass flow (lpm),Sample temperature (°C),Ambient temperature (°C),ASC tube jacket temperature (°C),LED temperature (°C),Box temperature (°C),Sample RH (%),Span deviation,Mass concentration (μg/m³),Mass concentration (μg/m³),Mass concentration (μg/m³)
DateTimeUTC,F1_M11,P_M11,Q1_M11,Q2_M11,T1_M11,T2_M11,T3_M11,T4_M11,T5_M11,U1_M11,ZSPAN_M11,X0_M11,X2_M11,X1_M11
2021-09-20 02:00:00,,0820.0,4.99,0.00,29.1,25.2,00.0,38.3,30.4,17.6,0001.9,0010.20,0005.08,0004.67
2021-09-20 02:01:00,,0819.9,5.01,0.00,29.1,25.6,00.0,38.3,30.4,17.7,0001.9,0010.12,0005.07,0004.65
2021-09-20 02:02:00,,0819.9,5.01,0.00,29.0,26.1,00.0,38.3,30.5,17.7,0001.4,0010.15,0005.06,0004.66
2021-09-20 02:03:00,,0819.9,5.00,0.00,29.0,26.6,00.0,38.2,30.7,17.7,0001.0,0010.16,0005.06,0004.65
2021-09-20 02:04:00,,0819.9,5.01,0.00,29.0,27.0,00.0,38.2,30.8,17.6,0001.1,0010.10,0005.04,0004.62
2021-09-20 02:05:00,,0819.9,4.99,0.00,29.1,27.4,00.0,38.2,30.8,17.6,0001.3,0010.10,0005.03,0004.60
2021-09-20 02:06:00,,0820.0,5.00,0.00,29.1,27.7,00.0,38.2,30.9,17.6,0001.3,0010.09,0005.03,0004.60
2021-09-20 02:07:00,,0820.0,4.99,0.00,29.1,27.9,00.0,38.2,31.0,17.6,0001.7,0009.25,0005.03,0004.58
2021-09-20 02:08:00,,0819.9,5.01,0.00,29.2,28.1,00.0,38.2,31.0,17.5,0001.8,0009.60,0005.00,0004.56
2021-09-20 02:09:00,,0820.0,5.00,0.00,29.2,28.2,00.0,38.2,31.1,17.5,0001.7,0009.70,0004.99,0004.55
2021-09-20 02:10:00,,0819.9,5.01,0.00,29.3,28.4,00.0,38.3,31.2,17.5,0001.7,0009.48,0004.99,0004.54
2021-09-20 02:11:00,,0820.0,5.00,0.00,29.3,28.5,00.0,38.3,31.2,17.4,0001.7,0009.01,0004.97,0004.53
2021-09-20 02:12:00,,0820.0,5.01,0.00,29.4,28.6,00.0,38.3,31.3,17.4,0001.7,0009.54,0004.96,0004.52
2021-09-20 02:13:00,,0820.0,5.00,0.00,29.4,28.7,00.0,38.3,31.3,17.3,0001.6,0009.59,0004.93,0004.50
2021-09-20 02:14:00,,0820.0,5.01,0.00,29.5,28.6,00.0,38.4,31.3,17.3,0001.7,0009.34,0004.93,0004.50
2021-09-20 02:15:00,,0820.0,5.00,0.00,29.4,27.0,00.0,38.4,30.9,17.4,0001.6,0009.39,0004.93,0004.52
2021-09-20 02:16:00,,0820.0,5.00,0.00,29.3,26.3,00.0,38.4,30.7,17.5,0001.0,0009.82,0004.94,0004.52
2021-09-20 02:17:00,,0820.0,5.01,0.00,29.2,26.5,00.0,38.4,30.8,17.5,0001.0,0009.87,0004.93,0004.51
2021-09-20 02:18:00,,0820.0,4.99,0.00,29.2,26.8,00.0,38.3,30.8,17.6,0001.0,0010.11,0004.92,0004.51
2021-09-20 02:19:00,,0820.1,5.00,0.00,29.2,27.2,00.0,38.3,30.9,17.6,0001.2,0009.73,0004.94,0004.51
2021-09-20 02:20:00,,0820.1,5.00,0.00,29.2,27.6,00.0,38.3,31.0,17.6,0001.6,0009.62,0004.95,0004.51
2021-09-20 02:21:00,,0820.1,5.00,0.00,29.3,27.8,00.0,38.3,31.1,17.6,0001.5,0009.76,0004.94,0004.50
2021-09-20 02:22:00,,0820.1,5.00,0.00,29.3,28.1,00.0,38.3,31.1,17.6,0001.0,0009.84,0004.94,0004.51
2021-09-20 02:23:00,,0820.1,4.99,0.00,29.3,28.2,00.0,38.3,31.2,17.5,0000.9,0009.32,0004.92,0004.52
2021-09-20 02:24:00,,0820.1,5.02,0.00,29.4,28.4,00.0,38.4,31.2,17.6,0000.9,0009.15,0004.93,0004.52
2021-09-20 02:25:00,,0820.1,4.99,0.00,29.4,28.5,00.0,38.4,31.3,17.5,0001.0,0009.56,0004.98,0004.52
2021-09-20 02:26:00,,0820.2,5.00,0.00,29.5,28.6,00.0,38.4,31.4,17.4,0001.0,0009.51,0004.98,0004.50
2021-09-20 02:27:00,,0820.2,5.01,0.00,29.5,28.4,00.0,38.4,31.3,17.4,0001.2,0009.03,0004.96,0004.50
2021-09-20 02:28:00,,0820.2,4.99,0.00,29.4,26.6,00.0,38.4,30.9,17.4,0001.0,0008.99,0004.95,0004.50
2021-09-20 02:29:00,,0820.1,5.00,0.00,29.3,26.2,00.0,38.4,30.7,17.6,0000.7,0008.69,0004.92,0004.49
2021-09-20 02:30:00,,0820.1,5.01,0.00,29.2,26.5,00.0,38.4,30.8,17.7,0000.7,0008.50,0004.91,0004.49
2021-09-20 02:31:00,,0820.1,5.01,0.00,29.2,26.9,00.0,38.4,30.9,17.8,0000.1,0008.52,0004.92,0004.49
2021-09-20 02:32:00,,0820.2,5.00,0.00,29.2,27.2,00.0,38.3,30.9,17.9,0000.3,0008.33,0004.92,0004.50
2021-09-20 02:33:00,,0820.1,4.99,0.00,29.2,27.6,00.0,38.3,31.0,17.8,0000.8,0008.18,0004.93,0004.50
2021-09-20 02:34:00,,0820.2,5.01,0.00,29.3,27.8,00.0,38.3,31.1,17.9,0000.8,0008.29,0004.95,0004.50
2021-09-20 02:35:00,,0820.2,5.00,0.00,29.3,28.0,00.0,38.4,31.2,17.8,0000.7,0008.21,0004.97,0004.52
2021-09-20 02:36:00,,0820.2,5.01,0.00,29.4,28.2,00.0,38.4,31.2,17.8,0000.6,0007.88,0004.93,0004.52
2021-09-20 02:37:00,,0820.2,4.99,0.00,29.4,28.4,00.0,38.4,31.3,17.8,0000.5,0008.08,0004.92,0004.52
2021-09-20 02:38:00,,0820.2,5.01,0.00,29.5,28.5,00.0,38.4,31.3,17.7,0000.8,0008.13,0004.93,0004.52
2021-09-20 02:39:00,,0820.2,4.99,0.00,29.5,28.6,00.0,38.4,31.4,17.7,0001.0,0008.06,0004.92,0004.53
2021-09-20 02:40:00,,0820.1,5.01,0.00,29.5,28.6,00.0,38.5,31.4,17.6,0001.1,0007.99,0004.90,0004.53
2021-09-20 02:41:00,,0820.0,4.99,0.00,29.5,27.1,00.0,38.5,31.0,17.6,0000.9,0007.95,0004.88,0004.53
2021-09-20 02:42:00,,0820.0,5.00,0.00,29.3,25.3,00.0,38.4,30.5,17.8,0001.0,0007.86,0004.86,0004.54
2021-09-20 02:43:00,,0820.0,4.99,0.00,29.1,25.2,00.0,38.4,30.4,17.9,0000.9,0008.21,0004.87,0004.53
2021-09-20 02:44:00,,0820.0,5.01,0.00,29.1,25.7,00.0,38.3,30.5,18.0,0000.7,0008.81,0004.89,0004.54
2021-09-20 02:45:00,,0820.2,4.99,0.00,29.0,26.2,00.0,38.3,30.6,18.0,0000.7,0009.12,0004.89,0004.55
2021-09-20 02:46:00,,0820.2,5.01,0.00,29.0,26.7,00.0,38.3,30.7,18.1,0001.2,0009.03,0004.86,0004.53
2021-09-20 02:47:00,,0820.2,5.00,0.00,29.1,27.1,00.0,38.2,30.8,18.2,0001.5,0008.94,0004.84,0004.53
2021-09-20 02:48:00,,0820.2,5.00,0.00,29.1,27.4,00.0,38.2,30.9,18.1,0002.0,0008.80,0004.85,0004.54
2021-09-20 02:49:00,,0820.3,4.99,0.00,29.1,27.7,00.0,38.2,30.9,18.0,0002.1,0008.84,0004.87,0004.55
2021-09-20 02:50:00,,0820.3,5.01,0.00,29.2,27.9,00.0,38.2,31.0,18.0,0002.0,0009.05,0004.90,0004.55
2021-09-20 02:51:00,,0820.3,4.99,0.00,29.2,28.1,00.0,38.3,31.1,18.0,0002.1,0009.71,0004.95,0004.56
2021-09-20 02:52:00,,0820.3,5.01,0.00,29.3,28.2,00.0,38.3,31.1,18.1,0002.3,0009.90,0004.97,0004.56
2021-09-20 02:53:00,,0820.3,4.99,0.00,29.3,28.3,00.0,38.3,31.2,18.1,0002.4,0010.10,0005.02,0004.58
2021-09-20 02:54:00,,0820.4,5.00,0.00,29.3,28.4,00.0,38.3,31.2,18.1,0002.5,0009.75,0005.01,0004.61
2021-09-20 02:55:00,,0820.4,5.00,0.00,29.4,28.5,00.0,38.3,31.3,18.1,0002.6,0009.20,0004.98,0004.62
2021-09-20 02:56:00,,0820.4,5.00,0.00,29.4,28.6,00.0,38.4,31.3,18.0,0003.0,0008.92,0005.02,0004.64
2021-09-20 02:57:00,,0820.4,5.02,0.00,29.5,28.6,00.0,38.4,31.4,17.9,0002.9,0008.95,0005.05,0004.67
2021-09-20 02:58:00,,0820.4,4.99,0.00,29.5,28.7,00.0,38.4,31.4,17.8,0002.7,0009.08,0005.11,0004.68
2021-09-20 02:59:00,,0820.4,4.99,0.00,29.6,28.4,00.0,38.4,31.3,17.8,0002.4,0009.06,0005.12,0004.70
